Regional Weather Roundup
Issued by NWS Mobile, AL

Home | Current Version | Previous Version | Text Only | Print | Product List | Glossary On
Versions: 1 2 3 4 5 6 7 8 9 10 11 12 13 14 15 16 17 18 19 20 21 22 23 24 25 26 27 28 29 30 31 32 33 34 35 36 37 38 39 40 41 42 43 44 45 46 47 48 49 50
000
ASUS44 KMOB 251113
RWRMOB
REGIONAL WEATHER ROUNDUP
NATIONAL WEATHER SERVICE MOBILE AL
600 AM CDT TUE JUL 25 2017

NOTE: "FAIR" INDICATES FEW OR NO CLOUDS BELOW 12,000 FEET WITH NO
      SIGNIFICANT WEATHER AND/OR OBSTRUCTIONS TO VISIBILITY.

  * THESE STATIONS ARE PART OF THE UNIVERSITY OF SOUTH ALABAMA
    MESONET AND ARE NOT UNDER NWS OR FAA QUALITY CONTROL.

ALZ061>064-251200-
COASTAL ALABAMA

CITY           SKY/WX    TMP DP  RH WIND       PRES   REMARKS
MOBILE REG APT CLOUDY    74  72  93 W3        30.11R
BROOKLEY FIELD CLOUDY    76  75  97 CALM      30.10R
USA CAMPUS*      N/A     66  66 100 CALM      30.10R
DOG RIVER*     NOT AVBL


CITY           SKY/WX    TMP DP  RH WIND       PRES   REMARKS
GULF SHORES    CLOUDY    73  73 100 CALM      30.10R

$$

ALZ051>060-251200-
INTERIOR SOUTHWEST AND SOUTH CENTRAL ALABAMA

CITY           SKY/WX    TMP DP  RH WIND       PRES   REMARKS
GREENVILLE     CLOUDY    75  71  87 W6        30.09R
EVERGREEN      CLOUDY    74  72  93 S5        30.11R
ATMORE*        NOT AVBL
ANDALUSIA/OPP  MOCLDY    76  72  87 W7        30.10R
ANDALUSIA*       N/A     72  72 100 W5        30.11R
FLORALA APT    PTCLDY    73  70  90 CALM      30.12R
FLORALA*         N/A     72  72 100 CALM      30.82R

$$

FLZ001>006-251200-
WESTERN FLORIDA PANHANDLE

CITY           SKY/WX    TMP DP  RH WIND       PRES   REMARKS
PENSACOLA      CLOUDY    78  72  81 W6        30.09R
NAS PENSACOLA  CLOUDY    76  73  91 CALM      30.09R
MILTON         MOCLDY    73  73 100 NW3       30.10R
WHTNG S FIELD  MOCLDY    75  73  93 CALM      30.10R


CITY           SKY/WX    TMP DP  RH WIND       PRES   REMARKS
JAY*             N/A     73  72  94 CALM      30.11R
DUKE FIELD     PTCLDY    74  71  93 W3        30.10R
CRESTVIEW      MOCLDY    74  71  91 CALM      30.11R
VALPARAISO     MOCLDY    75  73  93 NW7       30.10R
DESTIN         MOCLDY    81  73  76 NW6       30.10R

$$

MSZ076-079-251200-
INTERIOR SOUTHEAST MISSISSIPPI

CITY           SKY/WX    TMP DP  RH WIND       PRES   REMARKS
LEAKESVILLE*     N/A     73  73 100 CALM      30.12R
AGRICOLA*      NOT AVBL

$$

MARINE OBSERVATIONS

STATION/POSITION TIME  TEMP    WIND        PRES    WAVE
                       AIR SEA DIR/SP/G            HT/PER
                 (UTC) (F)     (DEG/KT/KT) (MB)    (FT/S)
PASCAGOULA       1048   78     360/  1/  1 1018.8R
PETIT BOIS ISLND 1048   81     260/  9/ 10 1019.7R
GRAND BAY        0945   77        CALM     1019.0R
KATRINA CUT      1030   82     270/  9     1019.0R
CEDAR POINT      1030   80     320/  4     1019.0R
E DAUPHIN ISLAND 1000   80     260/  5/  6 1018.2R
MIDDLE BAY LIGHT 1030   80     280/  8     1018.3R
USCG MOBILE BAY  1048   76 85  300/  3/  5 1019.5R
STATE DOCKS      1048   76 86              1018.8R
MEAHER PARK      1030   78     320/  2     1018.6R
WEEKS BAY        0945   73                   N/A
FORT MORGAN      1048   81     260/ 10/ 10   N/A
12 S ORANGE BCH  0950   82 83  290/ 12/ 12 1018.1R   1/ 4
PENSACOLA BAY    1048   77 85              1019.2R
64 S DAUPHIN ISL 1050   84 85  260/ 12/ 14 1019.1R   2/ 5
67 S FORT MORGAN 1030   83     260/ 10     1019.0R

$$

SELECTED LOCATIONS ACROSS THE REGION

CITY           SKY/WX    TMP DP  RH WIND       PRES   REMARKS
NEW ORLEANS    MOCLDY    77  76  96 SW6       30.09S
GULFPORT       PTCLDY    75  74  96 CALM      30.08R
PASCAGOULA AP  MOCLDY    73  71  93 CALM      30.09R
PASCAGOULA*      N/A    N/A N/A N/A CALM        N/A
HATTIESBURG    CLOUDY    74  74 100 NE3       30.10R
LAUREL         HVY RAIN  75  74  96 CALM      30.11R FOG
MERIDIAN       CLOUDY    76  75  97 CALM      30.09R
JACKSON        MOCLDY    76  75  97 SW6       30.08R
MONTGOMERY     CLOUDY    78  72  81 CALM      30.08R
TROY           CLOUDY    73  73 100 CALM      30.10R
ASHFORD*         N/A     72  72 100 W5        30.11R
DOTHAN         MOCLDY    75  74  96 W6        30.13R
PANAMA CITY    PTCLDY    76  73  91 NW5       30.09R

$$




USA.gov is the U.S. government's official web portal to all federal, state and local government web resources and services.